AF5AA Weather Reports


Display with metric or nautical units.
time (UTC)temp
F
wind
direction
speed
MPH
gust
MPH
rain 1hr
in
rain 24hr
in
rain mn
in
humidity
%
barometer
mb
20260901023936 86 103 0.0 0.0 0.00 0.00 0.00 61 1014.3
20260901023431 86 103 0.0 0.0 0.00 0.00 0.00 61 1014.0
20260901022926 86 102 0.0 0.0 0.00 0.00 0.00 61 1014.1
20260901022422 86 102 0.0 0.0 0.00 0.00 0.00 60 1013.9
20260901021917 87 102 0.0 0.0 0.00 0.00 0.00 62 1014.2
20260901021413 87 102 0.0 0.0 0.00 0.00 0.00 58 1014.1
20260901020908 87 102 0.0 0.0 0.00 0.00 0.00 57 1014.0
20260901020403 87 101 0.0 0.0 0.00 0.00 0.00 57 1014.0
20260901015902 87 100 0.0 0.0 0.00 0.00 0.00 57 1014.0
20260901015359 88 97 0.0 0.0 0.00 0.00 0.00 56 1013.9
20260901014858 88 99 0.0 0.0 0.00 0.00 0.00 56 1013.7
20260901014354 88 100 0.0 0.0 0.00 0.00 0.00 56 1013.8
20260901013849 88 100 0.0 0.0 0.00 0.00 0.00 56 1013.7
20260901013345 88 100 0.0 0.0 0.00 0.00 0.00 56 1013.8
20260901012841 89 101 0.0 0.0 0.00 0.00 0.00 56 1013.6
20260901012335 89 99 0.0 0.0 0.00 0.00 0.00 54 1013.7
20260901011830 89 100 0.0 0.0 0.00 0.00 0.00 54 1013.9
20260901011326 90 101 0.0 0.0 0.00 0.00 0.00 53 1013.8
20260901010819 90 102 0.0 0.0 0.00 0.00 0.00 52 1013.5
20260901010314 91 102 0.0 0.0 0.00 0.00 0.00 51 1013.6
20260901005813 91 102 0.0 0.0 0.00 0.00 0.00 51 1013.5
20260901005309 92 102 0.0 0.0 0.00 0.00 0.00 49 1013.5
20260901004809 92 101 0.0 0.0 0.00 0.00 0.00 49 1013.5
20260901004303 93 103 0.0 0.0 0.00 0.00 0.00 47 1013.6
20260901003803 93 103 0.0 0.0 0.00 0.00 0.00 47 1013.4
20260901003257 93 99 0.0 0.0 0.00 0.00 0.00 46 1013.5
20260901002751 93 97 0.0 0.0 0.00 0.00 0.00 46 1013.4
20260901002246 93 96 0.0 1.0 0.00 0.00 0.00 45 1013.5
20260901001741 93 94 0.0 0.0 0.00 0.00 0.00 45 1013.2
20260901001237 93 100 0.0 0.0 0.00 0.00 0.00 45 1013.4
20260901000732 93 102 0.0 0.0 0.00 0.00 0.00 45 1012.9
20260901000226 93 96 0.0 0.0 0.00 0.00 0.00 45 1013.3
20260831235720 94 107 0.0 0.0 0.00 0.00 0.00 44 1013.0
20260831235216 94 104 0.0 0.0 0.00 0.00 0.00 44 1013.1
20260831234715 94 107 0.0 0.0 0.00 0.00 0.00 44 1013.1
20260831234210 95 108 0.0 0.0 0.00 0.00 0.00 43 1013.1
20260831233706 95 102 0.0 0.0 0.00 0.00 0.00 42 1012.9
20260831233201 95 104 0.0 0.0 0.00 0.00 0.00 41 1013.4
20260831232701 96 104 0.0 0.0 0.00 0.00 0.00 41 1013.2
20260831232157 96 98 0.0 0.0 0.00 0.00 0.00 40 1013.0
20260831231653 97 94 0.0 0.0 0.00 0.00 0.00 39 1013.1
20260831231149 97 66 1.0 1.0 0.00 0.00 0.00 39 1013.1
20260831230644 98 91 0.0 0.0 0.00 0.00 0.00 38 1013.1
20260831230139 98 88 0.0 0.0 0.00 0.00 0.00 38 1013.0
20260831225638 98 85 0.0 0.0 0.00 0.00 0.00 38 1012.9
20260831225134 98 84 0.0 1.0 0.00 0.00 0.00 38 1013.0
20260831224629 98 114 0.0 0.0 0.00 0.00 0.00 38 1013.0
20260831224124 98 129 0.0 1.0 0.00 0.00 0.00 37 1013.0
20260831223619 98 109 0.0 0.0 0.00 0.00 0.00 38 1013.1
20260831223116 98 115 0.0 1.0 0.00 0.00 0.00 37 1013.0
20260831222611 98 110 1.0 1.0 0.00 0.00 0.00 38 1013.1
20260831222112 98 105 0.0 1.0 0.00 0.00 0.00 38 1013.2
20260831221607 99 105 0.0 0.0 0.00 0.00 0.00 36 1013.3
20260831221102 99 118 0.0 0.0 0.00 0.00 0.00 36 1013.4
20260831220556 99 111 0.0 0.0 0.00 0.00 0.00 36 1013.2
20260831220052 99 117 1.0 1.0 0.00 0.00 0.00 37 1013.3
20260831215548 99 135 0.0 0.0 0.00 0.00 0.00 36 1013.4
20260831215043 100 114 0.0 0.0 0.00 0.00 0.00 36 1013.4
20260831214541 99 98 0.0 1.0 0.00 0.00 0.00 37 1013.6
20260831214036 100 58 1.0 1.0 0.00 0.00 0.00 36 1013.5
20260831213533 100 54 0.0 0.0 0.00 0.00 0.00 36 1013.6
20260831213028 100 105 0.0 1.0 0.00 0.00 0.00 36 1013.6
20260831212524 99 37 0.0 1.0 0.00 0.00 0.00 36 1013.7
20260831212019 100 342 1.0 1.0 0.00 0.00 0.00 36 1013.6
20260831211514 100 110 0.0 0.0 0.00 0.00 0.00 36 1013.7
20260831211013 99 105 1.0 1.0 0.00 0.00 0.00 37 1013.8
20260831210508 100 105 1.0 1.0 0.00 0.00 0.00 36 1013.7
20260831210005 100 104 1.0 1.0 0.00 0.00 0.00 37 1013.9
20260831205459 100 99 0.0 0.0 0.00 0.00 0.00 37 1013.8
20260831204955 100 70 1.0 1.0 0.00 0.00 0.00 37 1013.9
20260831204455 100 119 1.0 1.0 0.00 0.00 0.00 37 1014.0
20260831203953 100 81 1.0 1.0 0.00 0.00 0.00 38 1014.3
20260831203448 99 133 0.0 1.0 0.00 0.00 0.00 38 1014.2
20260831202946 100 111 1.0 1.0 0.00 0.00 0.00 37 1014.4
20260831202442 100 105 1.0 2.0 0.00 0.00 0.00 36 1014.3
20260831201941 99 105 0.0 0.0 0.00 0.00 0.00 36 1014.8
20260831201439 100 190 2.0 2.0 0.00 0.00 0.00 36 1014.7
20260831200935 99 144 1.0 1.0 0.00 0.00 0.00 37 1014.7
20260831200430 99 128 1.0 1.0 0.00 0.00 0.00 37 1014.8
20260831195930 100 95 0.0 1.0 0.00 0.00 0.00 37 1014.9
20260831195426 100 126 1.0 1.0 0.00 0.00 0.00 37 1014.9
20260831194921 101 114 1.0 2.0 0.00 0.00 0.00 37 1015.1
20260831194417 100 120 0.0 1.0 0.00 0.00 0.00 37 1015.1
20260831193916 100 115 1.0 2.0 0.00 0.00 0.00 38 1015.1
20260831193411 99 112 0.0 0.0 0.00 0.00 0.00 39 1014.9
20260831192906 98 97 0.0 1.0 0.00 0.00 0.00 38 1015.3
20260831192401 98 114 0.0 0.0 0.00 0.00 0.00 39 1015.3
20260831191857 98 83 1.0 2.0 0.00 0.00 0.00 39 1015.4
20260831191353 98 113 1.0 2.0 0.00 0.00 0.00 41 1015.2
20260831190849 97 134 0.0 1.0 0.00 0.00 0.00 42 1015.5
20260831190347 97 55 0.0 1.0 0.00 0.00 0.00 41 1015.5
20260831185842 96 85 0.0 1.0 0.00 0.00 0.00 41 1015.8
20260831185338 96 76 0.0 1.0 0.00 0.00 0.00 43 1015.7
20260831184837 97 68 0.0 1.0 0.00 0.00 0.00 41 1015.6
20260831184332 97 192 1.0 1.0 0.00 0.00 0.00 41 1015.7
20260831183828 96 133 1.0 2.0 0.00 0.00 0.00 42 1015.7
20260831183327 96 94 0.0 0.0 0.00 0.00 0.00 43 1015.9
20260831182826 96 102 0.0 0.0 0.00 0.00 0.00 44 1016.0
20260831182321 96 98 0.0 0.0 0.00 0.00 0.00 45 1015.9
20260831181817 96 113 0.0 0.0 0.00 0.00 0.00 43 1016.0
20260831181312 96 143 2.0 2.0 0.00 0.00 0.00 43 1016.0
20260831180807 96 105 0.0 0.0 0.00 0.00 0.00 44 1016.2
20260831180301 96 94 0.0 0.0 0.00 0.00 0.00 45 1016.2
20260831175801 96 125 1.0 1.0 0.00 0.00 0.00 45 1016.4
20260831175257 96 106 0.0 0.0 0.00 0.00 0.00 44 1016.2
20260831174753 96 111 0.0 0.0 0.00 0.00 0.00 47 1016.5
20260831174248 96 105 1.0 1.0 0.00 0.00 0.00 46 1016.3
20260831173747 95 32 0.0 0.0 0.00 0.00 0.00 48 1016.7
20260831173241 95 22 0.0 0.0 0.00 0.00 0.00 48 1016.7
20260831172736 95 144 1.0 1.0 0.00 0.00 0.00 48 1016.9
20260831172232 95 122 0.0 0.0 0.00 0.00 0.00 47 1017.1
20260831171726 95 100 0.0 0.0 0.00 0.00 0.00 48 1016.8
20260831171224 94 95 0.0 0.0 0.00 0.00 0.00 51 1016.8
20260831170720 93 117 0.0 0.0 0.00 0.00 0.00 51 1017.0
20260831170216 94 131 1.0 1.0 0.00 0.00 0.00 51 1017.2
20260831165712 94 111 0.0 0.0 0.00 0.00 0.00 50 1017.1
20260831165209 93 187 0.0 0.0 0.00 0.00 0.00 50 1017.2
20260831164704 92 125 0.0 0.0 0.00 0.00 0.00 51 1017.3
20260831164200 92 134 2.0 2.0 0.00 0.00 0.00 52 1017.3
20260831163655 92 122 0.0 0.0 0.00 0.00 0.00 53 1017.5
20260831163151 91 128 0.0 0.0 0.00 0.00 0.00 53 1017.4
20260831162650 91 63 0.0 1.0 0.00 0.00 0.00 53 1017.6
20260831162148 91 52 1.0 2.0 0.00 0.00 0.00 52 1017.4
20260831161644 91 115 0.0 0.0 0.00 0.00 0.00 55 1017.6
20260831161140 91 118 0.0 0.0 0.00 0.00 0.00 55 1017.4
20260831160639 91 122 0.0 0.0 0.00 0.00 0.00 56 1017.5
20260831160135 91 98 0.0 0.0 0.00 0.00 0.00 57 1017.6
20260831155634 90 114 0.0 0.0 0.00 0.00 0.00 57 1017.4
20260831155130 89 108 0.0 0.0 0.00 0.00 0.00 57 1017.5
20260831154625 89 115 0.0 0.0 0.00 0.00 0.00 60 1017.3
20260831154120 88 120 0.0 1.0 0.00 0.00 0.00 59 1017.5
20260831153619 88 110 0.0 0.0 0.00 0.00 0.00 63 1017.4
20260831153117 88 87 1.0 1.0 0.00 0.00 0.00 61 1017.4
20260831152611 87 130 0.0 1.0 0.00 0.00 0.00 62 1017.3
20260831152107 86 118 0.0 0.0 0.00 0.00 0.00 64 1017.4
20260831151606 86 122 0.0 0.0 0.00 0.00 0.00 68 1017.3
20260831151101 85 91 0.0 0.0 0.00 0.00 0.00 71 1017.2
20260831150556 85 103 0.0 0.0 0.00 0.00 0.00 71 1017.1
20260831150052 84 125 2.0 2.0 0.00 0.00 0.00 71 1017.3
20260831145546 84 109 0.0 0.0 0.00 0.00 0.00 75 1017.3
20260831145043 84 104 0.0 0.0 0.00 0.00 0.00 74 1017.1
20260831144538 83 102 0.0 0.0 0.00 0.00 0.00 74 1017.3
20260831144033 83 112 0.0 0.0 0.00 0.00 0.00 77 1017.4
20260831143527 82 108 0.0 0.0 0.00 0.00 0.00 76 1017.1
20260831143023 82 114 0.0 0.0 0.00 0.00 0.00 77 1017.2
20260831142520 81 112 0.0 0.0 0.00 0.00 0.00 78 1017.1
20260831142015 80 110 0.0 0.0 0.00 0.00 0.00 79 1017.0
20260831141514 80 106 0.0 0.0 0.00 0.00 0.00 80 1017.1
20260831141008 80 110 0.0 0.0 0.00 0.00 0.00 81 1017.1
20260831140503 79 109 0.0 0.0 0.00 0.00 0.00 81 1017.0
20260831140002 79 109 0.0 0.0 0.00 0.00 0.00 81 1017.1
20260831135500 79 110 0.0 0.0 0.00 0.00 0.00 82 1017.2
20260831134955 78 108 0.0 0.0 0.00 0.00 0.00 82 1017.1
20260831134452 78 108 0.0 0.0 0.00 0.00 0.00 83 1017.3
20260831133951 77 107 0.0 0.0 0.00 0.00 0.00 84 1017.1
20260831133446 76 107 0.0 0.0 0.00 0.00 0.00 84 1017.1
20260831132941 76 107 0.0 0.0 0.00 0.00 0.00 85 1017.1
20260831132437 75 110 0.0 0.0 0.00 0.00 0.00 86 1016.7
20260831131936 75 108 0.0 0.0 0.00 0.00 0.00 86 1016.9
20260831131431 74 106 0.0 0.0 0.00 0.00 0.00 86 1016.9
20260831130927 74 104 0.0 0.0 0.00 0.00 0.00 86 1016.5
20260831130422 74 104 0.0 0.0 0.00 0.00 0.00 87 1016.7
20260831125921 73 104 0.0 0.0 0.00 0.00 0.00 88 1016.7
20260831125416 73 104 0.0 0.0 0.00 0.00 0.00 88 1016.5
20260831124912 72 104 0.0 0.0 0.00 0.00 0.00 89 1016.4
20260831124408 72 105 0.0 0.0 0.00 0.00 0.00 89 1016.2
20260831123903 72 105 0.0 0.0 0.00 0.00 0.00 89 1016.4
20260831123401 71 103 0.0 0.0 0.00 0.00 0.00 90 1016.5
20260831122856 71 102 0.0 0.0 0.00 0.00 0.00 89 1016.3
20260831122351 72 102 0.0 0.0 0.00 0.00 0.00 89 1016.1
20260831121846 71 105 0.0 0.0 0.00 0.00 0.00 89 1016.0
20260831121343 71 110 0.0 0.0 0.00 0.00 0.00 88 1016.1
20260831120838 71 111 0.0 0.0 0.00 0.00 0.00 88 1015.7
20260831120332 72 110 0.0 0.0 0.00 0.00 0.00 88 1016.0
20260831115827 72 109 0.0 0.0 0.00 0.00 0.00 87 1015.8
20260831115324 72 109 0.0 0.0 0.00 0.00 0.00 88 1015.6
20260831114823 72 109 0.0 0.0 0.00 0.00 0.00 88 1015.6
20260831114321 72 109 0.0 0.0 0.00 0.00 0.00 88 1015.6
20260831113817 72 107 0.0 0.0 0.00 0.00 0.00 88 1015.7
20260831113312 72 108 0.0 0.0 0.00 0.00 0.00 87 1015.5
20260831112811 72 109 0.0 0.0 0.00 0.00 0.00 87 1015.4
20260831112301 72 108 0.0 0.0 0.00 0.00 0.00 87 1015.5
20260831111756 72 109 0.0 0.0 0.00 0.00 0.00 86 1015.6
20260831111253 72 109 0.0 0.0 0.00 0.00 0.00 87 1015.8
20260831110749 73 109 0.0 0.0 0.00 0.00 0.00 86 1015.5
20260831110243 73 109 0.0 0.0 0.00 0.00 0.00 84 1015.4
20260831105742 73 108 0.0 0.0 0.00 0.00 0.00 84 1015.4
20260831105238 73 108 0.0 0.0 0.00 0.00 0.00 85 1015.5
20260831104732 73 108 0.0 0.0 0.00 0.00 0.00 85 1015.4
20260831104230 73 109 0.0 0.0 0.00 0.00 0.00 84 1015.4
20260831103729 73 109 0.0 0.0 0.00 0.00 0.00 84 1015.4
20260831103225 73 109 0.0 0.0 0.00 0.00 0.00 83 1015.3
20260831102724 74 109 0.0 0.0 0.00 0.00 0.00 84 1015.3
20260831102219 74 109 0.0 0.0 0.00 0.00 0.00 82 1015.4
20260831101715 74 108 0.0 0.0 0.00 0.00 0.00 82 1015.4
20260831101210 74 107 0.0 0.0 0.00 0.00 0.00 82 1015.3
20260831100706 74 107 0.0 0.0 0.00 0.00 0.00 82 1015.3
20260831100202 74 107 0.0 0.0 0.00 0.00 0.00 82 1015.3
20260831095700 74 107 0.0 0.0 0.00 0.00 0.00 82 1015.4
20260831095155 75 107 0.0 0.0 0.00 0.00 0.00 82 1015.2
20260831094650 75 107 0.0 0.0 0.00 0.00 0.00 81 1015.3
20260831094146 75 107 0.0 0.0 0.00 0.00 0.00 81 1015.3
20260831093642 75 107 0.0 0.0 0.00 0.00 0.00 81 1015.2
20260831093138 75 107 0.0 0.0 0.00 0.00 0.00 80 1015.1
20260831092634 75 107 0.0 0.0 0.00 0.00 0.00 80 1015.1
20260831092129 75 107 0.0 0.0 0.00 0.00 0.00 80 1015.1
20260831091629 75 107 0.0 0.0 0.00 0.00 0.00 80 1015.0
20260831091124 75 107 0.0 0.0 0.00 0.00 0.00 79 1015.0
20260831090620 76 107 0.0 0.0 0.00 0.00 0.00 79 1015.3
20260831090116 76 107 0.0 0.0 0.00 0.00 0.00 79 1015.0
20260831085611 76 107 0.0 0.0 0.00 0.00 0.00 78 1015.2
20260831085106 76 107 0.0 0.0 0.00 0.00 0.00 77 1015.1
20260831084602 76 105 0.0 0.0 0.00 0.00 0.00 77 1015.0
20260831084058 76 104 0.0 0.0 0.00 0.00 0.00 77 1015.1
20260831083553 76 103 0.0 0.0 0.00 0.00 0.00 77 1015.3
20260831083048 77 107 0.0 0.0 0.00 0.00 0.00 77 1015.1
20260831082542 77 107 0.0 0.0 0.00 0.00 0.00 76 1015.0
20260831082037 77 104 0.0 0.0 0.00 0.00 0.00 76 1014.9
20260831081533 77 104 0.0 0.0 0.00 0.00 0.00 76 1015.1
20260831081028 77 108 0.0 0.0 0.00 0.00 0.00 75 1015.1
20260831080523 77 105 0.0 0.0 0.00 0.00 0.00 75 1015.1
20260831080018 77 105 0.0 0.0 0.00 0.00 0.00 75 1015.1
20260831075513 77 105 0.0 0.0 0.00 0.00 0.00 75 1015.3
20260831075009 77 105 0.0 0.0 0.00 0.00 0.00 75 1015.1
20260831074509 77 105 0.0 0.0 0.00 0.00 0.00 75 1015.1
20260831074009 77 104 0.0 0.0 0.00 0.00 0.00 74 1015.1
20260831073503 77 106 0.0 0.0 0.00 0.00 0.00 74 1015.1
20260831073002 78 107 0.0 0.0 0.00 0.00 0.00 74 1015.0
20260831072458 78 107 0.0 0.0 0.00 0.00 0.00 74 1015.1
20260831071954 78 107 0.0 0.0 0.00 0.00 0.00 74 1015.2
20260831071453 78 106 0.0 0.0 0.00 0.00 0.00 73 1014.8
20260831070948 78 107 0.0 0.0 0.00 0.00 0.00 71 1015.1
20260831070447 78 106 0.0 0.0 0.00 0.00 0.00 71 1015.6
20260831065947 78 104 0.0 0.0 0.00 0.00 0.00 71 1014.9
20260831065445 78 104 0.0 0.0 0.00 0.00 0.00 71 1015.2
20260831064940 79 104 0.0 0.0 0.00 0.00 0.00 71 1015.3
20260831064435 79 104 0.0 0.0 0.00 0.00 0.00 70 1015.3
20260831063931 79 106 0.0 0.0 0.00 0.00 0.00 70 1015.3
20260831063425 79 106 0.0 0.0 0.00 0.00 0.00 69 1015.3
20260831062919 80 107 0.0 0.0 0.00 0.00 0.00 70 1015.1
20260831062416 80 107 0.0 0.0 0.00 0.00 0.00 68 1015.2
20260831061914 80 107 0.0 0.0 0.00 0.00 0.00 69 1015.4
20260831061413 80 108 0.0 0.0 0.00 0.00 0.00 68 1015.2
20260831060909 80 108 0.0 0.0 0.00 0.00 0.00 67 1015.1
20260831060404 80 106 0.0 0.0 0.00 0.00 0.00 67 1014.8
20260831055904 80 108 0.0 0.0 0.00 0.00 0.00 67 1014.8
20260831055359 80 109 0.0 0.0 0.00 0.00 0.00 67 1014.8
20260831054854 80 105 0.0 0.0 0.00 0.00 0.00 68 1014.8
20260831054349 80 105 0.0 0.0 0.00 0.00 0.00 66 1014.8
20260831053848 80 105 0.0 0.0 0.00 0.00 0.00 66 1014.8
20260831053346 80 108 0.0 0.0 0.00 0.00 0.00 67 1014.9
20260831052841 80 107 0.0 0.0 0.00 0.00 0.00 66 1015.0
20260831052341 80 108 0.0 0.0 0.00 0.00 0.00 67 1014.8
20260831051839 81 108 0.0 0.0 0.00 0.00 0.00 66 1014.8
20260831051338 81 108 0.0 0.0 0.00 0.00 0.00 66 1014.6
20260831050832 81 108 0.0 0.0 0.00 0.00 0.00 66 1014.6
20260831050332 81 94 0.0 0.0 0.00 0.00 0.00 67 1014.8
20260831045826 81 104 0.0 0.0 0.00 0.00 0.00 66 1014.4
20260831045320 81 104 0.0 0.0 0.00 0.00 0.00 66 1014.5
20260831044816 81 107 0.0 0.0 0.00 0.00 0.00 63 1014.4
20260831044310 81 107 0.0 0.0 0.00 0.00 0.00 65 1014.7
20260831043807 81 107 0.0 0.0 0.00 0.00 0.00 66 1014.6
20260831043306 81 104 0.0 0.0 0.00 0.00 0.00 65 1014.3
20260831042801 81 104 0.0 0.0 0.00 0.00 0.00 66 1014.5
20260831042301 81 104 0.0 0.0 0.00 0.00 0.00 67 1014.6
20260831041756 81 104 0.0 0.0 0.00 0.00 0.00 66 1014.2
20260831041255 81 103 0.0 0.0 0.00 0.00 0.00 66 1014.3
20260831040750 81 103 0.0 0.0 0.00 0.00 0.00 65 1014.4
20260831040249 81 101 0.0 0.0 0.00 0.00 0.00 66 1014.3
20260831035748 81 101 0.0 0.0 0.00 0.00 0.00 67 1014.2
20260831035247 81 100 0.0 0.0 0.00 0.00 0.00 66 1014.2
20260831034746 81 102 0.0 0.0 0.00 0.00 0.00 66 1014.1
20260831034242 81 96 0.0 0.0 0.00 0.00 0.00 66 1014.1
20260831033737 81 103 0.0 0.0 0.00 0.00 0.00 66 1014.1
20260831033237 81 85 0.0 0.0 0.00 0.00 0.00 66 1013.9
20260831032732 81 107 0.0 0.0 0.00 0.00 0.00 65 1013.9
20260831032227 81 110 0.0 0.0 0.00 0.00 0.00 65 1013.9
20260831031722 81 111 0.0 0.0 0.00 0.00 0.00 64 1013.9
20260831031217 81 104 0.0 0.0 0.00 0.00 0.00 65 1013.8
20260831030716 82 104 0.0 0.0 0.00 0.00 0.00 65 1013.7
20260831030215 82 104 0.0 0.0 0.00 0.00 0.00 63 1013.6
20260831025714 82 104 0.0 0.0 0.00 0.00 0.00 64 1013.7
20260831025209 83 105 0.0 0.0 0.00 0.00 0.00 62 1013.4
20260831024705 83 108 0.0 0.0 0.00 0.00 0.00 63 1013.3
20260831024203 83 108 0.0 0.0 0.00 0.00 0.00 61 1013.4